Weather in Charlotte

United States     35°13′50″N   80°50′49″W
temp.,
°C
wind,
m/s
gust,
m/s
humid.,
%
clouds,
%
prec.,
mm/h
press.,
hPa
HPBL,
m
16 september, thu
thu1623:00+23wsw3666100 0.3 1017280
02:00+23wnw3565100 0.4 1016273
05:00+22nw2466100 0.0 1016235
08:00+21nnw2472100 0.0 1018217
11:00+22n2474100 0.3 1019250
14:00+22nne2478100 0.6 1019240
17:00+23n2275100 0.1 101753
20:00+22nnw2475100 0.1 1018123
17 september, fri
fri1723:00+22n257295 0.0 1019170
02:00+22n277388 0.0 1019237
05:00+21nne258755 0.0 1019144
08:00+21nne2687100 0.0 1020244
11:00+26ne3462100 0.0 1021757
14:00+28nne3349100 0.0 10191343
17:00+30nne224439 0.0 10171741
20:00+26ne24615 0.0 1018143
18 september, sat
sat1823:00+23nne11814 0.6 101913
02:00+22ne12834 0.6 101934
05:00+21ne2388100 0.0 1019111
08:00+21ne1390100 0.0 1020137
11:00+27ne126097 0.0 1020777
14:00+32ene124197 0.0 10181886
17:00+30e2244100 0.0 1016958
20:00+28ssw2452100 0.1 1017153
19 september, sun
sun1923:00+27nw1159100 0.0 101841
02:00+25se006591 0.0 101912
05:00+24n1170100 0.0 101917
08:00+24nne2369100 0.0 1020124
11:00+29ene2351100 0.0 1020884
14:00+31ese3444100 0.2 10192279
17:00+25wsw4775100 0.5 1018273
20:00+25wsw247887 1.1 1019175
20 september, mon
mon2023:00+23sw118290 0.0 102043
02:00+22se128396 0.0 102166
05:00+22se248699 0.1 1021182
08:00+22ese248654 0.1 1022195
11:00+25se3567100 0.0 1023989
14:00+30sse464269 0.2 10202125
17:00+28s4656100 0.0 1020747
20:00+25ese256496 0.1 1021309